This is the latest recevied weather packets stored in our database for station/object K7DC. If no packets are shown the sender has not sent any weather packets the latest 10 day(s).
| Time | Temp. | Humidity | Pressure | Rain* | Wind** | Luminosity | Snow |
|---|---|---|---|---|---|---|---|
| 1787936416 | 33.89° C | 39% | 1017.8 hPa | 0 mm | - | 309 W/m² | - |
| 1787936115 | 33.33° C | 36% | 1017.7 hPa | 0 mm | - | 294 W/m² | - |
| 1787935811 | 33.33° C | 36% | 1017.9 hPa | 0 mm | - | 289 W/m² | - |
| 1787935507 | 33.33° C | 36% | 1017.9 hPa | 0 mm | - | 279 W/m² | - |
| 1787935203 | 33.33° C | 37% | 1017.9 hPa | 0 mm | - | 288 W/m² | - |
| 1787934898 | 33.89° C | 36% | 1017.7 hPa | 0 mm | - | 284 W/m² | - |
| 1787934597 | 33.89° C | 36% | 1017.7 hPa | 0 mm | - | 278 W/m² | - |
| 1787934292 | 33.89° C | 35% | 1017.3 hPa | 0 mm | - | 273 W/m² | - |
| 1787933991 | 35° C | 33% | 1017.4 hPa | 0 mm | - | 328 W/m² | - |
| 1787933691 | 35.56° C | 31% | 1017.4 hPa | 0 mm | - | 478 W/m² | - |
| 1787933386 | 35° C | 32% | 1017.6 hPa | 0 mm | - | 527 W/m² | - |
| 1787933086 | 35° C | 34% | 1017.7 hPa | 0 mm | - | 527 W/m² | - |
| 1787932784 | 35° C | 35% | 1017.6 hPa | 0 mm | - | 506 W/m² | - |
| 1787932485 | 34.44° C | 35% | 1017.2 hPa | 0 mm | - | 476 W/m² | - |
| 1787932174 | 35° C | 36% | 1017.6 hPa | 0 mm | - | 459 W/m² | - |
| 1787931873 | 35.56° C | 36% | 1017.7 hPa | 0 mm | - | 451 W/m² | - |
| 1787931568 | 33.89° C | 36% | 1017.7 hPa | 0 mm | - | 432 W/m² | - |
| 1787931262 | 32.22° C | 40% | 1017.4 hPa | 0 mm | - | 435 W/m² | - |
| 1787930962 | 31.11° C | 43% | 1017.7 hPa | 0 mm | - | 403 W/m² | - |
| 1787930661 | 31.11° C | 44% | 1017.7 hPa | 0 mm | - | 247 W/m² | - |
| 1787930356 | 31.67° C | 44% | 1017.4 hPa | 0 mm | - | 376 W/m² | - |
| 1787930051 | 31.67° C | 45% | 1017.7 hPa | 0 mm | - | 260 W/m² | - |
| 1787929749 | 31.67° C | 45% | 1017.2 hPa | 0 mm | - | 380 W/m² | - |
| 1787929445 | 31.67° C | 45% | 1017.3 hPa | 0 mm | - | 391 W/m² | - |
| 1787929142 | 31.11° C | 45% | 1017.4 hPa | 0 mm | - | 356 W/m² | - |
* Rain latest hour (hover to see other rain measurements)
** Current wind speed in m/s (hover to see current wind gust speed)